一网星座-0330星 (ONEWEB-0330 )

导读

ONEWEB-0330是英国OneWeb星座中的一颗低轨宽带通信卫星,于2021年8月21日发射入轨。OneWeb项目由英国主导,旨在构建覆盖全球的低轨卫星互联网,为偏远地区、地面网络覆盖盲区提供高速宽带接入服务,弥补传统通信基础设施的不足,同时可在灾害等应急场景保障通信连通。 该卫星属于OneWeb第一代组网卫星,和整个星座共同为全球用户提供泛在互联服务,后续第二代OneWeb卫星还将增加导航定位功能,进一步拓展服务能力,ONEWEB-0330的成功入轨推动OneWeb星座完成了组网进度,助力实现全球覆盖的目标。

基本信息
目录编号:
49108
目录名称:
ONEWEB-0330
国际标识:
2021-075AK
轨道中心:
EARTH
卫星名称:
一网星座-0330星
卫星全名:
一网星座-0330星 (ONEWEB-0330 )
卫星状态:
在轨 (已飞行1756 天)
发射日期:
2021-08-21 UTC
国别 :
英国 (GB)
星等 :
--
轨道信息
数据来源 国际轨道数据 AOE轨道数据
星历时间 2026-06-12T14:28:28+0800
14小时前
查看轨道信息
2026-06-11T23:00:00+0800
1天前
查看轨道信息
半长轴 7571.85km 7571.85km
偏心率 0.0001988 0.0001978
轨道倾角 87.914° 87.916°
近地点辐角 93.012° 99.884°
升交点赤经 6.867° 6.996°
平近点角 267.124° 83.538°
近地点 1192.207km 1192.215km
远地点 1195.219km 1195.211km
周期 109.286分钟 109.286分钟
每日圈数 13.176492 13.176492
详细信息
平衡模式:
三轴稳定
覆盖范围:
全球
运营商:
一网卫星公司
运营商所在国:
英国
制造商(研发单位):
一网卫星公司
制造商所在国:
英国
使用方式:
暂无
卫星简介
OneWeb卫星网络由648颗重约125公斤的微型卫星组成,运行在1200公里的轨道上。 每颗卫星都能够提供至少每秒8千兆位的吞吐量,以使用其高吞吐量的Ku频段有效载荷为家庭和移动平台提供互联网接入。该卫星仍在工作。
2D轨道图
3D轨道图
轨道高度分析图
轨道倾角分析图
轨道综合分析图
查看轨道综合分析图